TimeCST,TemperatureF,Dew PointF,Humidity,Sea Level PressureIn,VisibilityMPH,Wind Direction,Wind SpeedMPH,Gust SpeedMPH,PrecipitationIn,Events,Conditions,WindDirDegrees,DateUTC
12:53 AM,48.0,43.0,83,29.96,10.0,WNW,5.8,-,N/A,,Overcast,300,2012-11-07 06:53:00
1:53 AM,46.9,42.1,83,29.95,10.0,NW,6.9,-,N/A,,Scattered Clouds,310,2012-11-07 07:53:00
2:02 AM,46.4,42.8,87,29.95,10.0,NW,5.8,-,N/A,,Mostly Cloudy,320,2012-11-07 08:02:00
2:48 AM,48.2,42.8,82,29.94,10.0,NW,6.9,-,N/A,,Overcast,310,2012-11-07 08:48:00
2:53 AM,48.0,43.0,83,29.94,10.0,NW,4.6,-,N/A,,Overcast,310,2012-11-07 08:53:00
3:25 AM,48.2,42.8,82,29.94,10.0,WNW,6.9,-,N/A,,Overcast,300,2012-11-07 09:25:00
3:53 AM,46.9,42.1,83,29.94,10.0,NW,10.4,-,N/A,,Overcast,310,2012-11-07 09:53:00
4:53 AM,44.1,39.9,85,29.96,9.0,NW,8.1,-,N/A,,Clear,310,2012-11-07 10:53:00
6:53 AM,43.0,39.9,89,29.98,6.0,WNW,6.9,-,N/A,,Clear,300,2012-11-07 12:53:00
7:53 AM,46.9,41.0,80,29.99,9.0,WNW,10.4,-,N/A,,Mostly Cloudy,300,2012-11-07 13:53:00
8:53 AM,48.0,41.0,77,29.99,9.0,NW,8.1,-,N/A,,Mostly Cloudy,310,2012-11-07 14:53:00
9:53 AM,52.0,41.0,66,29.99,10.0,North,8.1,-,N/A,,Overcast,350,2012-11-07 15:53:00
10:10 AM,51.8,41.0,67,29.99,10.0,NNW,6.9,-,N/A,,Overcast,330,2012-11-07 16:10:00
10:38 AM,53.6,39.2,58,29.98,10.0,NNW,8.1,-,N/A,,Overcast,340,2012-11-07 16:38:00
10:53 AM,53.1,39.9,61,29.98,10.0,Variable,5.8,-,N/A,,Overcast,0,2012-11-07 16:53:00
11:53 AM,51.1,41.0,68,29.96,10.0,WNW,5.8,-,N/A,,Overcast,300,2012-11-07 17:53:00
12:53 PM,50.0,39.0,66,29.96,10.0,NW,6.9,-,N/A,,Overcast,320,2012-11-07 18:53:00
1:53 PM,45.0,39.9,82,29.98,6.0,NNW,13.8,25.3,0.01,,Haze,340,2012-11-07 19:53:00
2:53 PM,45.0,42.1,90,30.01,9.0,NNW,8.1,-,0.02,,Overcast,330,2012-11-07 20:53:00
3:53 PM,46.9,43.0,86,30.03,10.0,NNW,6.9,-,N/A,,Overcast,330,2012-11-07 21:53:00
4:53 PM,46.0,42.1,86,30.05,10.0,NW,6.9,-,N/A,,Scattered Clouds,310,2012-11-07 22:53:00
5:53 PM,44.1,41.0,89,30.08,10.0,NW,5.8,-,N/A,,Partly Cloudy,310,2012-11-07 23:53:00
6:53 PM,41.0,39.0,93,30.10,10.0,North,3.5,-,N/A,,Clear,350,2012-11-08 00:53:00
7:53 PM,39.9,39.0,97,30.12,10.0,Calm,Calm,-,N/A,,Partly Cloudy,0,2012-11-08 01:53:00
8:53 PM,39.0,37.0,93,30.15,10.0,Calm,Calm,-,N/A,,Scattered Clouds,0,2012-11-08 02:53:00
9:53 PM,37.9,37.0,97,30.14,5.0,NNW,3.5,-,N/A,,Clear,330,2012-11-08 03:53:00
10:53 PM,37.9,37.0,97,30.14,7.0,North,4.6,-,N/A,,Clear,350,2012-11-08 04:53:00
11:53 PM,37.0,36.0,96,30.15,5.0,Calm,Calm,-,N/A,,Clear,0,2012-11-08 05:53:00